Temperature
30 31 31 31 32 32 31 31 31 31 31 31 30 31 31 29 29 28 27 27 26 25 24 23 22 21 21 21 20 20 20 19 19 19 19 19 19 19 18 18 18 18 18 18
30 31 32 32 31 31 31 31 31 31 31 30 30 31 31 30 29 28 28 27 26 25 24 23 22 22 21 21 20 20 20 20 20 19 19 19 19 19 19 18 18 18 18 18
31 32 31 31 31 31 31 31 31 31 31 31 30 30 31 31 29 29 28 27 27 26 25 23 23 22 22 21 21 21 20 20 20 19 19 19 19 19 19 19 19 19 18 18
31 31 31 31 31 31 31 31 31 31 30 31 31 30 31 31 30 30 29 28 27 26 25 24 23 23 22 22 21 21 21 20 20 20 19 19 19 19 19 19 19 19 18 18
31 31 30 30 31 31 31 31 31 31 31 31 31 31 31 31 31 30 30 28 28 27 26 25 24 23 23 22 21 21 21 21 20 20 20 19 19 19 19 19 19 19 19 19
31 31 31 31 31 31 31 31 30 31 31 30 31 31 31 32 31 31 30 29 28 27 26 25 24 23 23 22 22 21 21 21 21 20 20 20 19 19 19 19 19 19 19 19
30 30 31 31 31 31 31 31 30 30 30 30 31 30 31 31 31 30 30 29 28 27 26 25 24 24 23 22 22 21 21 21 21 20 20 20 20 19 19 19 19 19 19 19
29 30 31 31 31 31 31 31 30 29 30 31 30 30 31 31 30 29 29 29 28 27 26 25 24 24 23 22 22 21 21 21 21 20 20 20 20 19 19 19 19 19 19 19
30 30 31 30 31 31 31 31 32 31 31 30 31 31 31 31 30 30 29 29 28 27 26 25 25 24 23 23 22 22 21 21 21 20 20 20 20 20 19 19 19 19 19 19
30 29 30 30 30 30 31 31 31 31 29 29 30 31 31 30 30 30 29 28 27 27 26 25 25 24 23 23 22 21 21 21 21 20 20 20 20 20 20 19 19 19 19 19
30 29 29 30 30 30 30 30 30 31 31 30 30 30 31 30 29 29 29 28 27 27 26 25 24 24 23 23 22 21 21 21 21 20 20 20 20 20 19 19 19 19 19 19
28 29 29 30 30 30 31 30 30 29 29 30 30 30 30 30 29 29 28 27 26 26 26 25 24 23 23 22 22 21 21 21 20 20 20 20 20 19 19 19 19 19 19 19
27 28 27 28 29 29 29 30 30 31 30 30 30 30 29 29 28 27 27 26 25 25 25 24 24 23 22 22 22 21 21 21 20 20 20 20 19 19 19 19 19 19 19 19
26 27 28 28 29 29 29 29 29 30 30 30 30 30 29 28 27 27 26 25 25 24 24 24 23 23 22 21 21 21 21 20 20 20 20 19 19 19 19 19 19 19 19 19
26 27 27 28 28 28 28 28 29 29 29 29 30 29 29 27 27 26 25 25 24 24 23 23 22 22 22 21 21 20 20 20 20 20 20 19 19 19 19 19 19 19 18 18
25 25 26 26 27 27 27 28 28 28 28 29 29 28 28 26 26 25 24 24 24 23 23 22 22 21 21 21 20 20 20 20 20 19 19 19 19 19 19 19 19 19 18 18
25 24 25 26 27 27 27 27 28 28 28 28 28 28 26 26 25 24 23 23 23 22 22 21 21 21 20 20 20 20 20 20 20 19 19 19 19 19 19 19 18 18 18 18
23 23 24 25 25 24 27 27 27 27 26 27 26 26 25 24 23 23 22 22 22 21 21 21 21 21 20 20 20 20 20 19 19 19 19 19 19 19 19 18 18 18 18 17
23 22 24 25 25 25 26 26 26 26 25 25 25 25 24 23 23 23 22 21 21 20 20 20 20 20 20 20 20 19 19 19 19 19 19 18 18 18 18 18 18 18 17 17
22 22 23 24 24 24 25 25 24 25 24 24 24 24 23 23 25 24 21 20 20 20 19 19 20 19 19 19 19 19 19 18 18 18 18 18 18 18 18 18 18 17 17 17
22 22 22 23 23 24 24 23 23 24 24 22 22 22 22 22 23 21 20 19 19 19 19 19 19 19 19 19 18 18 18 18 18 18 18 18 18 18 18 17 17 17 17 17
22 23 22 23 23 23 22 23 23 22 21 20 20 20 20 20 20 20 19 19 19 18 18 18 18 18 18 18 18 18 18 18 17 17 17 17 17 17 17 17 17 16 16 16
22 22 23 22 22 21 21 21 20 19 20 19 19 19 19 19 19 19 18 18 18 18 18 18 18 17 17 17 17 17 18 17 17 17 17 17 17 17 16 16 16 16 16 15
20 20 20 20 21 20 20 19 19 18 18 18 18 18 18 18 18 18 18 17 17 17 17 17 17 17 17 17 17 17 17 17 17 17 16 16 16 16 16 15 15 15 15 15
20 19 20 19 20 19 19 18 18 18 18 18 18 18 18 18 17 17 17 17 16 16 16 16 16 17 17 17 17 17 16 16 16 16 16 16 16 15 15 15 15 15 15 15
19 19 19 19 19 19 19 18 17 17 17 17 17 17 17 17 17 16 16 16 16 16 16 16 16 16 16 16 16 16 16 16 16 16 15 15 15 15 15 15 15 14 14 14
Wind_Speed
7 9 8 6 6 5 4 4 3 1 1 4 4 4 5 8 9 9 10 10 11 10 10 10 10 9 9 8 8 8 7 7 6 4 4 4 3 3 3 3 3 3 3 3
9 11 7 5 6 6 6 6 4 2 2 3 4 5 5 7 9 10 10 11 11 11 11 11 11 10 10 9 9 9 8 8 8 6 4 3 2 3 3 2 3 3 3 3
13 5 5 7 8 8 8 7 5 3 3 5 5 6 6 7 8 9 10 10 11 11 12 13 12 12 11 11 10 9 9 8 8 7 5 4 4 3 4 3 3 3 3 3
11 8 7 9 9 9 7 4 5 5 6 4 5 4 4 6 8 9 10 10 11 11 12 13 13 13 12 12 11 10 10 9 8 8 7 7 5 4 3 3 2 3 3 3
9 9 10 10 9 8 5 3 5 7 7 7 6 6 3 6 6 7 8 9 10 11 12 13 13 13 12 12 11 11 10 10 10 9 8 7 6 4 3 3 3 3 3 3
9 6 8 8 6 6 5 5 6 8 8 8 5 6 3 3 4 4 6 8 9 10 11 12 12 12 12 12 11 11 11 10 10 10 9 8 7 5 4 4 3 4 3 3
11 10 8 7 8 8 9 9 7 7 7 6 3 6 3 1 2 3 4 6 8 9 10 11 12 13 12 12 12 11 11 10 10 10 9 8 7 7 6 5 5 4 3 3
12 12 10 9 10 9 11 12 8 7 6 4 5 6 2 1 1 2 2 4 6 9 9 11 11 12 12 12 12 11 11 11 11 10 9 8 8 6 5 6 4 4 3 2
9 9 7 7 8 10 10 11 10 10 9 8 5 5 4 3 3 2 2 3 5 7 9 10 10 11 11 12 12 12 11 10 10 10 9 8 8 6 5 5 5 4 3 3
7 8 7 7 8 8 9 9 8 10 9 9 8 8 4 3 3 2 2 2 3 6 8 9 9 10 10 11 11 11 11 11 10 9 8 7 7 7 6 5 5 4 3 3
9 9 8 8 10 10 10 11 9 9 10 10 8 4 0 1 2 2 1 1 2 5 6 8 8 8 9 10 10 11 10 10 10 9 8 7 7 7 7 6 5 5 4 4
7 9 10 10 7 6 10 11 12 11 10 10 11 5 2 0 1 1 1 1 1 3 5 7 8 8 8 9 9 10 9 9 9 9 9 8 7 7 7 6 6 5 5 5
4 7 10 11 11 9 10 10 12 13 12 12 13 6 4 2 1 1 1 0 2 3 4 6 7 7 7 7 8 8 8 8 8 8 8 8 8 7 7 7 6 6 6 5
5 8 11 13 8 8 11 11 12 13 12 13 13 9 4 1 1 1 0 0 2 3 4 5 6 6 6 7 7 7 8 8 8 8 8 8 8 7 7 7 6 6 6 6
4 8 10 10 9 8 10 12 13 14 15 14 11 10 6 3 3 1 0 1 2 3 4 4 5 5 6 6 6 6 7 7 7 7 8 7 7 7 7 6 6 6 6 6
3 6 8 10 10 10 12 12 13 14 14 14 12 10 4 3 3 2 1 1 2 2 3 4 4 5 5 5 6 6 6 6 7 7 7 7 7 7 7 6 6 6 6 5
4 6 9 11 10 11 15 12 12 12 12 12 13 8 3 3 3 3 2 1 1 2 2 3 3 4 4 4 5 6 6 6 7 7 7 6 7 7 7 7 6 6 6 6
7 7 7 9 9 15 7 3 7 9 8 8 6 4 4 4 4 3 2 2 2 1 2 2 2 2 3 4 4 4 5 5 6 6 6 6 6 6 6 6 6 6 6 6
9 8 8 9 13 12 7 5 7 9 8 6 6 5 4 3 4 4 3 1 1 1 1 1 1 2 2 3 3 4 5 5 5 5 5 5 5 5 6 6 6 6 6 5
7 9 10 10 12 13 6 2 2 6 9 5 5 5 5 5 7 4 2 1 1 1 0 0 1 1 2 2 3 4 4 4 5 4 4 4 5 5 6 6 5 4 5 5
9 9 12 13 13 8 1 2 4 9 4 2 2 3 5 5 3 1 2 2 2 1 1 0 1 1 1 2 3 4 4 4 4 4 4 4 5 5 6 5 5 4 4 4
8 8 10 11 13 8 0 3 4 1 2 1 1 2 3 4 3 2 2 2 2 1 1 1 1 1 1 2 3 3 4 4 4 4 4 4 5 5 4 4 5 5 5 5
7 6 6 6 4 1 0 1 0 1 1 2 3 3 3 4 4 3 3 2 2 2 2 1 1 1 1 2 2 3 3 3 4 4 4 4 4 3 3 4 4 4 5 4
5 4 6 6 5 3 2 1 2 2 3 3 4 4 4 4 4 4 3 3 2 2 2 2 2 2 2 2 2 2 3 3 3 3 3 3 3 3 3 3 3 3 3 3
6 5 6 8 7 5 5 4 3 3 4 4 4 4 4 4 4 4 3 3 3 3 3 3 3 3 2 2 2 2 2 3 3 3 3 3 3 2 3 2 1 2 2 2
8 8 9 8 6 6 5 4 4 5 6 5 5 4 4 4 4 3 3 3 3 3 3 3 4 3 2 2 2 2 2 3 4 3 3 3 3 3 3 2 1 3 1 2
Wind_Direction
198 219 220 218 238 267 262 258 254 247 210 247 252 250 206 191 200 202 198 195 196 195 187 185 187 186 184 183 183 185 187 179 180 182 186 178 175 180 179 181 172 193 198 183
207 224 230 234 235 243 245 247 242 210 202 247 262 259 227 202 208 209 206 201 201 195 189 187 190 189 189 187 188 186 187 185 187 184 187 190 189 197 189 189 177 196 194 198
225 219 198 218 221 233 244 256 258 257 230 220 256 240 211 198 207 210 212 210 204 200 196 192 193 194 192 190 191 192 189 186 190 185 186 184 184 199 190 194 194 198 205 206
230 222 214 224 230 242 247 252 258 249 247 239 251 258 200 198 202 207 211 210 206 199 198 195 193 196 197 193 190 191 189 188 186 186 193 195 200 203 202 205 196 202 209 217
218 216 221 229 234 237 257 248 244 249 253 260 241 260 214 188 211 211 212 212 208 200 196 195 194 194 197 194 190 187 187 189 188 190 193 201 208 208 204 203 197 222 211 216
233 217 233 239 233 221 206 212 226 233 244 246 248 258 245 206 230 233 216 207 203 198 194 194 193 191 194 193 191 187 185 190 190 191 194 200 207 209 209 210 207 212 204 203
218 215 212 224 220 204 218 230 230 226 227 241 210 251 260 286 260 252 226 203 196 195 192 190 190 190 191 192 192 189 185 189 190 192 196 198 204 206 209 219 215 221 215 201
215 213 205 213 224 220 222 236 245 253 249 230 207 245 235 171 246 234 212 186 186 188 189 189 188 188 189 190 189 188 186 191 192 193 196 200 203 210 214 218 228 218 227 206
223 218 194 209 223 232 222 232 252 260 262 263 242 234 223 210 217 207 180 164 171 181 184 185 184 186 186 187 187 187 186 189 192 192 192 197 202 212 218 215 223 225 220 207
240 235 210 199 210 221 245 238 235 246 254 255 243 241 243 215 228 226 206 184 175 175 180 181 179 181 181 182 181 183 184 186 188 189 193 191 197 203 211 217 217 225 222 213
239 234 218 207 217 217 211 223 233 245 252 259 258 244 35 243 244 252 235 206 188 181 179 177 174 174 173 175 177 179 182 185 187 190 190 194 192 195 199 205 208 208 209 203
232 237 236 224 217 247 231 228 227 236 239 249 265 258 97 214 217 256 266 190 169 174 172 168 167 165 169 173 176 177 180 185 188 188 188 192 192 195 200 205 207 203 204 206
227 234 231 223 212 210 227 231 238 243 246 245 253 245 129 119 91 6 325 180 157 160 160 160 160 161 165 170 174 176 180 183 185 185 188 192 196 198 204 209 207 204 204 209
260 241 244 247 244 218 221 228 236 243 245 249 251 254 220 229 263 305 325 194 165 154 160 162 161 161 163 168 173 178 182 183 183 186 190 195 199 201 204 206 205 206 207 208
250 244 247 259 267 258 245 238 234 241 251 257 256 250 253 252 250 257 258 134 137 149 154 159 165 162 166 168 173 181 184 183 186 191 197 198 198 199 204 205 206 205 209 213
261 249 247 247 245 246 246 247 242 240 245 249 253 253 258 234 211 204 192 156 146 142 145 149 158 159 169 177 182 183 186 184 187 197 203 198 198 200 204 205 206 207 211 217
234 236 244 247 241 246 241 239 242 240 240 245 249 246 212 210 198 195 186 167 162 141 131 138 154 159 168 176 180 184 186 187 191 198 203 201 202 205 204 206 206 208 210 213
233 241 243 248 242 244 245 234 245 241 242 253 255 234 221 211 206 203 190 173 164 147 144 148 160 165 168 169 175 180 183 185 191 198 203 206 208 206 204 206 209 210 210 215
223 227 240 242 243 247 233 225 232 236 235 240 233 216 211 205 196 198 194 187 183 182 181 181 179 173 165 169 174 177 187 190 194 201 205 205 207 207 207 211 212 212 210 213
205 220 234 237 247 249 242 196 249 245 229 207 221 218 218 226 229 196 169 203 208 242 216 187 184 174 171 180 184 186 192 198 203 204 205 204 206 207 206 209 209 206 206 212
201 211 228 238 244 247 259 251 228 234 227 150 223 230 231 240 273 272 230 232 237 239 242 213 221 212 203 203 198 201 202 209 211 207 206 208 211 213 211 206 205 204 207 211
227 223 224 235 242 242 46 226 235 306 54 100 276 271 264 261 257 239 250 246 253 260 254 247 248 251 244 220 204 205 213 216 210 207 210 216 216 219 212 207 209 209 208 207
238 255 255 249 253 33 346 255 356 324 294 301 292 285 278 270 264 255 262 265 270 278 280 279 271 261 245 235 217 217 225 222 211 209 211 212 212 214 211 210 212 213 210 216
231 253 253 251 242 251 260 262 273 300 308 305 298 289 273 265 269 262 263 265 258 265 269 274 273 267 267 252 234 227 224 213 212 216 216 207 204 204 202 210 218 221 222 226
256 245 245 248 252 256 243 251 266 290 295 297 298 287 278 269 269 266 251 250 251 255 258 262 268 275 274 258 242 236 223 206 212 216 221 219 213 197 195 205 229 226 241 244
244 247 250 257 254 257 254 259 274 281 283 289 295 293 289 274 268 270 264 259 252 255 258 257 261 268 274 270 267 263 236 207 209 207 211 224 220 203 204 191 177 47 55 99
Height
1494 1492 1490 1488 1487 1488 1489 1491 1493 1492 1491 1493 1493 1492 1493 1497 1500 1502 1505 1508 1511 1514 1517 1519 1521 1523 1525 1526 1527 1528 1530 1531 1532 1534 1535 1536 1537 1538 1540 1540 1541 1541 1542 1543
1492 1490 1486 1487 1488 1489 1489 1491 1491 1490 1490 1492 1492 1491 1488 1493 1496 1498 1501 1505 1508 1511 1514 1517 1519 1521 1523 1524 1526 1527 1528 1530 1531 1533 1534 1536 1537 1538 1539 1540 1540 1541 1542 1542
1487 1484 1486 1488 1489 1490 1489 1489 1490 1492 1490 1490 1492 1492 1487 1489 1493 1496 1499 1501 1504 1507 1510 1514 1516 1519 1521 1522 1524 1526 1527 1529 1531 1532 1534 1536 1537 1538 1539 1540 1540 1541 1541 1542
1483 1483 1486 1487 1487 1488 1490 1485 1487 1490 1493 1491 1491 1497 1487 1484 1488 1491 1495 1497 1500 1503 1507 1510 1513 1516 1518 1520 1522 1524 1526 1527 1529 1531 1533 1535 1536 1537 1538 1539 1540 1540 1541 1541
1482 1482 1485 1486 1484 1485 1486 1485 1487 1487 1489 1490 1488 1492 1486 1482 1485 1486 1489 1493 1496 1499 1503 1506 1509 1512 1515 1518 1520 1522 1524 1525 1527 1529 1531 1533 1535 1536 1537 1538 1539 1539 1540 1540
1478 1480 1481 1481 1481 1483 1485 1486 1487 1485 1485 1499 1490 1492 1490 1479 1482 1483 1485 1489 1493 1496 1499 1503 1506 1510 1513 1515 1518 1520 1521 1523 1525 1527 1529 1530 1532 1534 1535 1536 1537 1538 1539 1539
1482 1479 1480 1481 1482 1483 1484 1489 1497 1499 1498 1495 1485 1490 1486 1477 1478 1481 1483 1486 1490 1493 1496 1500 1503 1506 1509 1512 1515 1517 1519 1520 1523 1525 1527 1528 1530 1532 1533 1535 1536 1537 1538 1538
1484 1484 1477 1477 1479 1481 1480 1482 1496 1505 1500 1489 1486 1488 1478 1475 1479 1481 1482 1484 1487 1491 1494 1497 1500 1503 1505 1508 1511 1514 1516 1518 1520 1522 1524 1527 1528 1531 1532 1533 1535 1535 1536 1536
1477 1479 1472 1474 1476 1476 1479 1479 1473 1482 1487 1491 1484 1479 1474 1474 1477 1479 1481 1483 1485 1488 1491 1494 1497 1500 1503 1505 1508 1511 1513 1516 1518 1520 1522 1524 1526 1528 1530 1531 1532 1534 1534 1535
1473 1481 1472 1473 1475 1476 1473 1472 1477 1483 1498 1500 1488 1483 1478 1476 1476 1477 1479 1482 1484 1487 1490 1492 1495 1497 1500 1503 1506 1509 1511 1513 1516 1518 1520 1522 1524 1526 1527 1529 1530 1531 1532 1532
1472 1479 1476 1474 1476 1474 1477 1477 1477 1477 1479 1492 1494 1484 1470 1473 1475 1476 1478 1481 1483 1485 1488 1490 1493 1496 1499 1501 1504 1506 1509 1511 1513 1516 1518 1520 1522 1523 1525 1526 1528 1528 1529 1529
1475 1474 1476 1472 1469 1469 1469 1471 1474 1485 1486 1482 1484 1482 1469 1472 1474 1477 1479 1481 1483 1485 1487 1489 1492 1494 1497 1499 1502 1504 1507 1509 1511 1513 1515 1517 1519 1521 1523 1524 1525 1526 1526 1527
1477 1477 1485 1480 1476 1473 1472 1470 1468 1468 1472 1478 1483 1481 1471 1473 1476 1478 1480 1482 1483 1484 1486 1488 1490 1493 1495 1497 1500 1502 1505 1507 1509 1511 1513 1515 1517 1518 1520 1521 1522 1523 1523 1524
1480 1475 1478 1479 1470 1467 1472 1472 1470 1470 1475 1475 1474 1473 1471 1474 1477 1479 1481 1482 1483 1485 1486 1487 1489 1491 1493 1496 1498 1500 1502 1505 1507 1509 1511 1512 1514 1515 1517 1518 1519 1520 1521 1521
1478 1476 1473 1471 1468 1467 1469 1469 1469 1471 1469 1471 1469 1469 1470 1474 1477 1480 1481 1482 1483 1484 1485 1487 1488 1490 1492 1494 1496 1498 1500 1502 1504 1506 1508 1510 1511 1512 1514 1515 1516 1517 1518 1518
1479 1479 1476 1475 1470 1469 1470 1468 1467 1468 1467 1467 1468 1469 1471 1475 1478 1480 1481 1482 1483 1484 1486 1487 1488 1489 1490 1492 1494 1495 1497 1499 1501 1503 1505 1507 1508 1509 1511 1512 1513 1514 1514 1515
1478 1480 1480 1475 1470 1470 1472 1466 1465 1465 1464 1466 1467 1467 1472 1475 1477 1480 1482 1483 1483 1484 1485 1486 1487 1488 1489 1490 1491 1493 1494 1497 1499 1500 1502 1504 1505 1506 1507 1509 1510 1510 1511 1511
1482 1482 1478 1475 1478 1485 1465 1462 1463 1464 1465 1465 1467 1470 1473 1476 1478 1480 1482 1483 1483 1484 1485 1486 1486 1487 1488 1489 1490 1491 1493 1494 1496 1497 1499 1500 1501 1503 1503 1504 1505 1506 1507 1507
1479 1481 1478 1475 1475 1470 1465 1463 1464 1465 1467 1467 1468 1471 1474 1476 1477 1479 1481 1481 1482 1483 1484 1484 1485 1486 1487 1487 1489 1489 1491 1492 1493 1494 1495 1497 1498 1499 1500 1501 1501 1502 1503 1504
1477 1478 1477 1475 1478 1475 1464 1462 1465 1467 1468 1468 1470 1471 1473 1474 1472 1474 1479 1480 1481 1482 1482 1483 1483 1484 1484 1485 1487 1487 1488 1489 1490 1491 1492 1493 1494 1495 1496 1497 1498 1498 1499 1500
1475 1477 1476 1474 1473 1464 1464 1465 1467 1472 1468 1470 1471 1472 1473 1473 1473 1476 1477 1478 1479 1480 1480 1481 1481 1482 1482 1483 1483 1484 1485 1486 1487 1488 1489 1490 1491 1492 1493 1493 1494 1495 1495 1496
1469 1469 1472 1470 1472 1469 1466 1465 1467 1469 1471 1471 1472 1473 1473 1474 1474 1475 1476 1477 1477 1478 1478 1479 1479 1479 1480 1480 1481 1481 1482 1483 1484 1485 1485 1486 1487 1489 1490 1490 1490 1491 1491 1492
1468 1467 1464 1466 1468 1469 1469 1469 1471 1472 1472 1472 1472 1472 1473 1472 1472 1473 1474 1474 1475 1476 1476 1476 1476 1476 1477 1477 1478 1478 1479 1480 1480 1481 1482 1483 1484 1484 1485 1486 1486 1487 1488 1489
1468 1471 1469 1468 1466 1469 1470 1471 1472 1472 1471 1471 1471 1471 1471 1470 1471 1471 1472 1472 1473 1473 1474 1474 1474 1474 1474 1474 1474 1475 1475 1476 1477 1478 1478 1479 1480 1480 1481 1482 1483 1483 1483 1484
1469 1470 1468 1468 1468 1469 1470 1471 1471 1471 1471 1471 1470 1470 1469 1469 1469 1469 1469 1470 1470 1471 1472 1472 1472 1472 1472 1472 1472 1472 1473 1473 1474 1475 1476 1477 1477 1477 1478 1478 1479 1479 1479 1480
1469 1469 1468 1466 1467 1468 1468 1470 1470 1470 1469 1469 1468 1468 1467 1467 1467 1467 1467 1468 1468 1469 1469 1470 1470 1470 1470 1469 1469 1470 1470 1471 1471 1471 1472 1474 1474 1474 1475 1475 1475 1475 1476 1476